Temperature
23 22 21 21 23 25 26 27 28 28 29 29 29 28 26 25 24 22 21 22 21 20 21 21 21 20 20 20 20 20 20 20 20 20 20 19 19 19 19 19 19 19 19 19 19 19 19 19 19
22 21 22 23 24 26 26 27 28 28 29 29 28 27 26 25 23 22 22 22 21 20 20 20 20 20 20 20 20 20 20 20 20 20 20 20 19 19 19 19 19 19 19 19 19 19 19 19 19
23 22 23 24 27 26 27 28 28 29 29 28 28 26 25 24 23 22 21 21 21 20 20 20 20 20 20 20 20 19 19 19 19 19 19 19 19 19 19 19 19 19 19 19 19 19 19 19 19
23 24 25 26 27 28 28 28 29 29 28 28 27 25 23 23 22 22 22 22 21 20 20 20 20 20 20 20 19 19 19 19 19 19 19 19 19 19 19 19 19 19 19 19 18 18 19 19 19
24 25 25 26 27 28 29 29 28 28 28 27 26 24 23 22 22 22 22 22 21 20 20 20 20 20 20 20 19 19 19 19 19 19 19 19 19 19 19 19 19 19 19 19 19 18 18 19 19
26 25 24 26 27 28 29 28 28 27 27 26 25 24 22 22 22 22 22 22 21 21 20 20 20 20 20 20 19 19 19 19 19 19 19 19 19 19 19 19 19 19 19 19 19 19 18 18 18
27 25 25 26 26 27 28 28 27 26 25 25 25 24 22 22 21 22 22 21 21 21 20 20 20 20 20 20 19 19 19 19 19 19 19 19 19 19 19 19 19 19 19 19 19 19 19 19 18
27 27 26 25 26 26 28 27 26 25 24 23 23 22 21 21 21 21 21 21 21 21 20 20 19 19 19 19 19 19 19 19 19 19 19 19 19 19 19 19 19 19 19 19 19 19 19 19 19
28 26 24 25 26 26 27 26 25 24 23 22 21 21 21 21 21 21 21 21 20 20 20 20 20 19 19 19 19 19 19 19 19 19 19 19 19 19 18 18 18 19 19 19 19 19 19 19 19
28 24 25 27 27 25 25 24 25 23 22 22 21 21 20 20 20 20 20 20 20 20 20 20 20 20 19 19 19 19 19 19 19 19 19 19 19 18 18 18 18 18 18 19 19 19 19 19 19
28 26 26 27 26 25 24 22 22 22 21 20 20 20 20 20 20 20 20 20 19 19 19 20 19 20 19 19 19 19 19 19 19 19 19 18 18 18 18 18 18 18 18 19 19 18 19 19 18
27 27 27 26 26 25 24 23 21 20 20 20 20 20 20 20 20 20 20 20 19 19 19 19 19 19 19 19 19 19 19 19 19 19 18 18 18 18 18 18 18 18 18 18 18 18 18 18 18
27 26 25 24 24 23 22 21 21 20 20 20 20 20 20 20 20 19 19 19 19 19 19 19 18 19 19 19 19 19 19 19 19 19 19 18 18 18 18 18 18 18 18 18 18 18 18 18 19
27 26 25 25 24 23 23 22 21 20 20 21 21 20 20 19 19 19 18 18 18 18 18 18 18 18 18 18 18 18 18 18 18 18 19 18 18 18 18 18 18 18 18 18 18 18 18 19 19
27 26 25 25 25 24 24 22 21 20 21 21 21 20 20 19 19 19 18 18 17 17 17 17 17 17 17 17 17 18 18 18 18 18 18 18 18 18 18 18 18 18 18 18 18 18 19 19 19
28 26 24 25 25 25 24 21 21 21 21 21 21 20 20 19 19 18 17 17 17 17 16 16 16 16 16 16 16 17 17 17 17 18 18 18 18 18 18 18 18 18 18 18 18 18 18 19 19
27 26 24 24 25 26 24 21 21 21 21 21 21 21 20 19 18 18 17 16 16 16 16 16 15 15 15 16 16 16 16 16 17 17 17 17 18 18 18 18 18 18 18 18 18 18 18 18 18
26 26 26 24 25 25 23 22 22 21 21 21 21 20 20 19 18 17 17 16 16 15 15 15 15 15 15 15 15 15 15 16 16 16 17 17 17 17 17 18 18 18 18 18 18 18 18 18 18
28 27 27 25 24 24 23 22 22 21 21 21 20 20 19 18 18 17 16 16 15 15 15 14 14 14 14 14 14 14 15 15 15 16 16 16 17 17 17 17 17 17 18 18 18 18 18 18 18
28 27 27 25 24 25 24 23 22 21 21 20 20 19 19 18 18 17 16 16 15 15 14 14 14 14 14 13 14 14 14 14 15 15 16 16 16 16 16 17 17 17 17 17 17 17 17 17 18
27 27 26 25 24 24 24 22 21 21 21 20 20 19 18 18 17 17 16 15 15 14 14 13 13 13 13 13 13 14 14 14 14 15 15 15 16 16 16 16 16 16 17 17 17 17 17 17 17
26 26 25 25 24 24 24 22 21 21 21 20 20 19 18 17 17 16 16 15 15 14 14 13 13 13 13 13 13 13 13 13 14 14 14 15 15 15 15 16 16 16 16 16 17 17 17 17 17
25 25 25 25 24 24 25 23 21 22 20 20 20 19 18 17 17 16 15 15 14 14 13 13 13 13 13 13 13 13 13 13 13 14 14 14 15 15 15 15 16 16 16 16 16 16 16 17 17
25 25 25 25 24 23 24 23 21 21 20 20 20 19 18 17 16 16 15 15 14 14 13 13 13 13 12 12 12 12 13 13 13 13 14 14 14 15 15 15 15 15 16 16 16 16 16 16 16
26 25 24 24 23 24 24 23 20 20 20 20 19 18 17 17 16 16 15 15 14 14 13 13 13 12 12 12 12 12 12 12 13 13 13 14 14 14 14 15 15 15 16 16 16 16 16 16 16
25 25 24 23 24 24 23 22 20 21 20 19 19 18 17 17 16 16 15 15 14 14 13 13 13 13 12 12 12 12 12 12 12 13 13 13 14 14 14 14 15 15 15 15 15 15 15 15 16
25 25 25 24 24 24 24 22 20 21 20 20 19 18 18 17 16 16 15 15 14 14 13 13 13 13 12 12 12 12 12 12 12 13 13 13 13 14 14 14 14 14 15 15 15 15 15 15 15
24 24 24 24 23 23 24 23 21 20 20 20 19 18 17 17 16 16 15 15 14 14 14 13 13 13 12 12 12 12 12 12 12 12 13 13 13 13 14 14 14 14 14 15 15 15 15 15 15
24 25 24 24 24 22 22 21 21 20 20 19 19 18 17 17 16 16 15 15 14 14 14 13 13 13 12 12 12 12 12 12 12 12 12 13 13 13 13 13 14 14 14 14 14 14 15 15 15
24 24 24 23 23 23 22 20 21 21 20 19 19 18 17 17 17 16 15 15 14 14 14 13 13 13 12 12 12 12 12 12 12 12 12 12 13 13 13 13 13 13 13 14 14 14 14 14 15
Wind_Speed
8 8 6 3 3 2 12 11 11 10 10 11 11 12 17 16 10 8 3 9 16 16 16 12 11 10 9 8 7 7 7 6 6 6 5 5 4 4 4 3 3 4 4 4 4 4 4 4 4
8 6 4 3 1 8 10 10 11 11 9 9 12 16 18 15 13 8 5 9 15 16 15 13 12 9 8 7 7 6 6 6 5 5 4 4 3 3 3 3 2 3 3 4 4 4 4 4 4
10 6 4 2 7 10 10 9 10 12 11 10 12 15 12 10 12 7 8 9 12 13 15 16 12 9 8 6 6 5 5 5 5 5 4 3 3 3 2 2 2 2 2 3 3 3 3 3 3
6 4 3 1 12 11 11 10 11 12 13 14 12 11 11 12 9 9 8 9 12 12 16 15 12 9 7 6 5 5 5 5 4 4 4 3 3 3 2 1 1 1 2 2 2 2 2 2 2
5 2 2 6 12 12 11 12 13 14 14 15 16 14 12 12 12 9 6 9 9 11 15 14 12 10 8 6 6 5 5 5 5 5 4 4 4 3 3 2 2 1 1 1 1 1 1 1 1
2 1 2 5 11 11 12 13 14 15 14 14 13 14 10 10 9 7 7 7 8 9 11 14 13 11 10 8 7 7 7 7 7 7 6 6 5 5 4 4 3 2 2 1 1 0 0 1 1
4 1 2 6 8 9 12 14 15 14 15 14 10 11 8 10 6 6 6 7 8 7 6 10 11 11 11 10 10 9 9 8 8 8 8 8 7 7 7 6 5 5 3 3 2 2 2 2 2
4 3 4 4 6 8 12 14 14 15 13 13 12 9 6 6 5 6 6 7 7 6 5 3 5 7 10 11 13 12 12 11 10 10 10 10 10 10 10 10 9 7 6 5 4 4 4 4 5
3 2 3 2 5 7 10 12 13 14 15 16 15 13 9 9 9 9 8 8 7 6 5 3 2 0 4 8 11 13 13 13 12 12 13 12 12 13 14 14 13 11 9 7 7 7 7 7 8
0 2 3 6 9 10 12 12 7 10 14 12 13 12 11 10 10 10 9 8 8 7 6 4 3 2 3 3 5 10 10 12 13 13 13 13 14 13 11 14 15 13 11 10 10 10 9 10 10
3 4 6 8 9 10 10 12 14 9 9 10 9 9 9 9 9 8 8 7 6 6 6 7 6 4 3 2 2 4 5 7 10 12 12 12 12 10 7 9 12 13 13 11 12 12 11 12 11
6 8 7 8 8 8 9 8 11 13 7 6 7 7 9 9 8 7 6 6 6 5 4 5 5 5 4 4 2 3 3 4 5 8 11 10 6 5 5 5 10 11 11 11 10 10 12 13 12
8 7 10 12 14 15 15 13 10 9 6 5 6 8 9 9 9 7 8 8 8 8 8 7 7 7 5 4 3 3 3 4 6 7 9 9 5 6 5 4 6 8 9 8 6 7 7 7 6
8 10 9 10 10 10 12 10 7 6 4 5 6 8 9 9 9 10 11 10 10 10 10 9 10 8 7 6 5 4 3 5 6 6 8 10 8 5 5 5 4 4 5 6 6 6 5 4 3
9 10 9 7 8 8 7 9 7 4 3 6 6 7 7 8 9 10 11 11 11 10 10 10 10 9 9 8 7 5 5 6 4 5 9 10 9 7 5 5 5 5 7 6 5 5 4 4 4
9 9 6 4 3 5 3 5 6 3 4 5 5 5 5 7 10 10 11 11 11 10 10 10 10 10 10 9 8 5 6 6 4 6 7 10 10 9 5 6 6 6 6 4 3 3 2 3 3
8 6 4 5 2 2 2 6 5 3 4 4 5 5 6 8 9 10 11 11 11 10 10 10 10 10 9 9 7 6 6 6 5 5 6 7 9 8 5 6 6 7 5 5 5 4 3 3 3
6 6 3 5 4 3 4 6 5 4 5 6 6 8 9 10 10 10 10 10 10 10 11 11 10 10 9 7 7 6 7 6 5 4 5 7 6 7 5 5 7 6 5 5 5 5 4 2 3
10 8 4 7 5 1 2 5 5 4 4 7 8 9 10 11 10 10 10 10 10 10 11 10 10 10 8 6 7 7 7 7 6 5 6 7 6 6 5 5 5 6 6 6 6 4 5 4 3
9 8 4 6 3 3 2 4 6 4 3 5 7 8 10 9 11 10 10 10 10 10 10 10 10 10 9 7 6 6 7 6 7 5 5 6 6 6 7 7 5 6 6 7 6 5 3 4 4
7 6 7 3 2 4 5 5 8 7 4 4 6 6 8 8 10 10 9 9 9 9 10 11 10 10 9 9 7 7 6 6 6 6 5 5 6 6 7 6 6 7 7 7 8 8 7 5 4
6 6 5 5 5 5 7 3 8 8 5 5 6 6 7 8 9 8 9 10 10 10 10 10 10 10 10 10 8 9 7 7 8 7 6 6 5 5 6 6 7 7 6 7 9 8 7 7 5
4 5 6 7 8 9 7 3 7 6 4 6 6 7 8 8 9 9 9 9 10 10 9 9 10 10 10 10 10 9 8 7 7 7 7 6 5 4 4 6 6 6 6 8 9 9 8 7 7
4 7 9 9 8 6 0 1 5 4 7 7 7 7 8 8 8 9 9 8 8 8 8 8 9 9 10 10 10 9 10 9 8 8 7 6 4 3 4 4 5 5 6 7 8 8 9 8 8
5 7 5 5 6 2 4 2 6 7 6 6 6 7 7 7 7 7 8 8 8 8 8 8 9 9 10 10 10 10 10 9 8 7 6 6 5 4 4 4 3 4 5 6 6 7 8 8 9
5 5 5 5 5 1 4 4 7 7 5 3 4 5 5 6 6 7 7 7 7 8 8 9 9 9 10 10 10 9 9 7 6 7 6 6 5 4 5 4 3 3 4 5 5 6 7 7 9
6 4 4 5 9 6 4 7 7 5 3 3 5 5 6 7 7 7 7 7 7 7 8 8 8 9 10 10 9 8 9 8 8 8 7 6 5 5 5 4 2 2 3 3 4 4 6 6 7
3 6 5 5 5 5 1 5 4 4 4 5 6 6 7 7 7 7 6 7 7 6 7 7 7 8 9 9 9 9 8 8 8 7 8 8 7 6 5 5 3 2 1 1 2 3 4 6 6
2 2 3 4 3 3 4 4 5 5 4 4 5 6 6 6 7 6 6 6 7 7 7 7 8 8 9 9 8 9 9 8 9 8 8 8 8 7 7 6 5 4 3 1 0 2 3 4 5
3 5 5 4 5 2 3 4 5 4 4 3 4 4 4 5 6 6 6 6 7 7 7 8 8 8 8 8 8 9 9 9 9 9 9 8 8 8 7 7 6 5 4 3 2 1 1 3 4
Wind_Direction
216 221 224 252 259 62 56 52 52 44 47 49 46 67 69 56 53 84 148 126 117 118 126 134 131 128 126 123 122 120 120 121 119 117 113 108 105 100 94 84 73 64 61 60 61 59 53 52 54
240 215 228 249 352 64 59 55 58 48 53 62 57 59 64 61 69 92 102 102 119 124 136 135 135 133 132 133 133 131 129 130 129 127 124 119 115 110 106 97 82 72 70 66 65 62 59 53 53
250 230 248 247 56 60 64 57 63 57 50 62 72 59 49 52 70 92 107 121 119 121 124 126 138 139 141 143 147 149 147 145 146 145 143 138 132 122 111 106 92 75 75 76 69 68 65 61 58
244 234 263 71 73 63 63 65 61 63 54 53 69 71 59 49 68 90 117 121 111 118 121 131 140 145 152 158 164 170 170 170 168 165 166 168 166 164 159 148 124 84 73 75 75 79 71 71 68
233 277 351 82 77 69 63 62 64 61 57 62 76 86 73 60 70 85 94 103 111 120 127 139 146 152 161 170 176 186 190 191 189 189 191 192 193 192 189 192 194 184 134 100 83 84 82 82 76
263 5 24 84 83 68 62 61 62 61 52 50 79 91 81 66 63 72 76 82 99 111 127 140 157 165 174 183 190 198 205 208 207 206 208 208 210 211 209 208 204 200 192 181 161 126 187 221 234
284 232 126 88 86 70 62 58 56 58 45 30 51 89 82 58 52 61 72 75 82 84 107 147 162 176 187 193 198 203 210 215 217 217 217 218 219 219 218 215 210 208 208 206 205 214 226 229 239
302 323 45 80 91 73 68 67 62 60 53 38 40 65 64 40 53 60 64 63 66 66 65 78 148 176 191 198 206 209 211 216 221 224 224 223 223 223 222 219 211 209 210 212 212 216 222 228 236
286 14 35 55 90 74 66 79 82 75 66 59 57 58 53 40 45 45 42 42 41 34 25 30 38 218 196 201 205 206 213 218 222 226 228 226 225 222 218 220 208 203 207 211 213 217 223 228 232
299 57 43 49 79 84 61 47 50 76 56 48 47 46 42 40 39 37 33 28 22 9 360 359 355 339 316 266 202 201 210 211 217 225 218 217 228 230 218 207 200 200 205 212 215 219 226 231 229
50 85 84 63 82 99 86 58 36 78 53 38 34 34 38 37 37 32 28 22 12 359 358 352 348 342 323 284 244 221 221 213 220 229 217 214 227 231 203 186 188 198 206 213 212 216 226 224 221
81 52 69 72 64 76 83 80 61 58 58 43 40 35 36 33 28 23 17 10 360 355 353 339 338 329 316 312 279 246 225 225 229 232 227 211 212 224 219 203 189 193 202 207 198 209 218 220 216
106 95 84 86 85 84 85 81 78 63 58 53 41 41 34 30 19 16 16 7 357 356 351 348 339 335 328 317 293 276 251 235 235 232 237 219 202 211 217 219 203 200 202 198 203 208 221 214 212
117 121 121 114 106 102 98 89 76 60 38 47 43 45 30 25 17 17 16 2 360 358 351 349 345 341 330 322 316 306 291 266 249 235 236 234 213 209 214 216 205 205 209 211 208 207 222 214 193
139 148 147 144 138 142 123 83 71 60 41 40 33 46 29 23 17 21 13 0 359 353 347 350 340 341 337 335 332 322 300 289 264 250 246 245 229 211 210 217 210 207 212 219 225 230 211 202 184
198 195 166 141 165 168 228 86 72 32 37 40 24 39 34 31 20 24 12 0 355 351 348 346 344 344 344 342 331 318 307 295 278 267 255 254 244 225 209 212 216 211 203 205 209 234 224 201 179
228 248 162 154 176 154 92 94 89 45 16 24 26 24 32 29 25 27 13 1 352 353 351 351 350 346 347 336 322 318 309 301 292 275 260 253 253 243 225 214 221 214 196 193 204 204 210 203 191
304 294 246 149 102 87 102 115 110 68 28 11 16 19 27 18 20 25 12 3 357 359 356 354 349 346 344 335 329 322 314 309 302 294 281 268 254 249 238 228 218 214 199 193 193 191 200 199 183
309 306 306 108 108 80 135 136 122 81 48 18 17 18 18 9 10 23 10 7 1 0 358 352 349 344 342 339 330 323 317 312 303 295 290 283 267 253 239 240 228 216 205 197 193 191 193 197 181
292 298 321 110 108 300 213 177 134 114 76 44 20 18 16 5 1 14 10 6 1 0 356 349 349 343 344 335 325 311 308 301 298 293 284 276 267 254 242 229 225 224 203 193 197 193 194 198 180
305 339 345 343 166 245 251 213 156 146 116 71 40 30 17 5 1 5 5 3 360 358 356 349 345 344 345 338 329 323 314 309 309 308 297 282 267 255 243 233 222 222 208 198 197 194 192 198 199
329 28 333 296 271 245 212 242 149 150 125 72 43 35 23 10 1 9 7 4 360 359 355 348 350 348 347 340 334 327 322 317 310 307 297 292 266 256 244 234 226 220 212 205 201 194 191 186 196
345 325 286 270 264 273 238 260 135 141 73 50 40 28 22 11 6 8 7 4 359 357 353 349 353 350 346 342 336 330 327 315 309 311 308 305 293 275 258 240 229 217 215 212 203 194 192 191 190
281 266 251 241 252 259 249 337 104 67 41 25 22 21 20 5 7 4 1 1 356 352 352 349 353 348 345 344 342 342 336 327 323 323 322 320 311 295 279 257 233 222 219 217 208 199 197 193 186
267 296 281 235 212 134 81 84 89 78 54 27 12 16 11 3 9 360 357 357 354 352 353 349 354 348 347 347 345 344 341 335 332 330 326 329 324 315 298 277 247 228 220 218 208 200 201 197 193
321 311 325 324 335 47 151 91 103 94 86 38 22 33 10 8 8 1 355 354 352 354 351 350 352 348 349 346 343 345 346 343 339 338 336 333 325 311 310 298 265 235 225 219 209 204 202 198 198
317 333 351 302 289 290 128 115 128 125 102 44 19 25 22 9 1 1 357 359 358 353 350 352 352 348 349 346 343 352 355 355 351 348 345 339 339 336 332 331 322 270 231 210 204 202 201 196 196
311 328 307 294 335 326 61 105 103 89 42 21 19 27 24 8 359 6 4 4 357 353 344 352 353 354 350 354 359 2 358 355 350 351 352 350 352 355 352 351 343 335 306 223 202 199 198 195 193
297 270 311 294 280 321 338 73 74 71 56 24 21 31 24 5 360 6 10 6 360 358 353 357 360 2 359 359 0 2 360 0 360 2 5 4 3 9 9 5 3 11 17 9 188 194 189 193 194
329 335 332 322 343 324 297 99 96 95 84 58 32 29 18 5 3 11 13 10 3 356 357 2 3 2 2 3 4 4 4 8 7 6 7 10 11 14 17 13 14 21 26 25 45 65 145 184 189
Height
1518 1519 1520 1522 1522 1521 1523 1518 1513 1513 1511 1512 1512 1513 1519 1523 1529 1540 1540 1539 1540 1540 1541 1543 1544 1545 1546 1548 1549 1550 1551 1552 1553 1554 1554 1555 1556 1556 1557 1557 1558 1558 1559 1559 1560 1560 1560 1561 1561
1518 1521 1523 1523 1523 1530 1529 1518 1517 1515 1514 1514 1516 1518 1521 1527 1533 1537 1539 1541 1542 1542 1543 1544 1545 1546 1547 1549 1550 1551 1551 1552 1553 1554 1555 1555 1556 1556 1557 1557 1558 1558 1559 1559 1560 1560 1561 1561 1561
1520 1522 1524 1521 1521 1529 1528 1519 1517 1516 1516 1516 1519 1523 1529 1534 1536 1539 1541 1543 1544 1544 1544 1545 1546 1547 1548 1549 1550 1551 1552 1553 1553 1554 1555 1555 1556 1556 1557 1557 1558 1558 1558 1559 1559 1560 1560 1561 1562
1523 1524 1523 1521 1525 1522 1520 1518 1518 1519 1519 1519 1521 1529 1536 1538 1540 1541 1543 1544 1545 1545 1545 1547 1547 1548 1549 1550 1551 1551 1552 1553 1553 1554 1554 1555 1555 1556 1556 1557 1557 1557 1558 1559 1559 1560 1560 1561 1562
1524 1524 1525 1525 1524 1520 1519 1520 1521 1522 1523 1525 1527 1534 1540 1542 1543 1543 1545 1546 1546 1547 1546 1547 1548 1549 1549 1550 1551 1551 1552 1553 1553 1553 1554 1554 1555 1555 1556 1556 1556 1557 1557 1558 1558 1559 1560 1560 1561
1525 1525 1534 1534 1527 1523 1521 1523 1524 1526 1528 1529 1531 1536 1543 1545 1545 1545 1546 1547 1547 1548 1547 1548 1548 1549 1549 1550 1550 1551 1551 1552 1552 1553 1553 1554 1554 1555 1555 1555 1556 1556 1556 1557 1558 1558 1559 1560 1561
1525 1526 1532 1530 1529 1527 1525 1526 1528 1530 1533 1535 1535 1538 1544 1546 1547 1547 1547 1548 1548 1548 1549 1548 1548 1548 1549 1549 1550 1550 1550 1551 1551 1551 1552 1553 1553 1553 1554 1554 1555 1555 1556 1556 1557 1557 1558 1559 1560
1523 1523 1530 1532 1532 1531 1529 1530 1533 1535 1539 1540 1539 1542 1547 1548 1548 1548 1548 1548 1548 1548 1548 1548 1548 1548 1547 1548 1548 1548 1549 1549 1550 1550 1550 1551 1551 1552 1552 1553 1553 1554 1554 1555 1556 1556 1557 1558 1559
1524 1529 1538 1533 1530 1532 1531 1533 1537 1540 1543 1544 1546 1548 1549 1549 1549 1549 1549 1549 1549 1549 1548 1548 1547 1547 1547 1546 1546 1546 1547 1547 1547 1548 1548 1549 1549 1550 1550 1551 1552 1553 1553 1554 1554 1555 1556 1557 1558
1524 1535 1536 1528 1528 1534 1536 1538 1539 1543 1546 1548 1549 1550 1550 1550 1550 1549 1549 1549 1549 1548 1548 1547 1547 1546 1546 1545 1545 1544 1544 1544 1545 1545 1545 1546 1547 1548 1549 1549 1550 1551 1552 1552 1553 1554 1555 1556 1557
1525 1530 1531 1531 1532 1536 1539 1543 1544 1545 1551 1553 1553 1553 1552 1552 1551 1551 1550 1549 1549 1548 1547 1546 1545 1545 1544 1543 1543 1542 1542 1542 1542 1542 1543 1543 1544 1546 1546 1547 1548 1549 1549 1550 1551 1552 1553 1554 1556
1528 1531 1531 1534 1536 1537 1541 1545 1549 1551 1555 1555 1554 1554 1554 1553 1552 1552 1551 1549 1548 1547 1546 1545 1544 1543 1542 1541 1540 1540 1539 1539 1539 1539 1539 1540 1541 1542 1544 1544 1545 1546 1547 1548 1549 1550 1552 1553 1555
1531 1535 1538 1539 1541 1543 1546 1550 1553 1556 1556 1556 1555 1555 1555 1554 1554 1553 1551 1550 1548 1547 1546 1544 1542 1541 1540 1539 1537 1537 1536 1536 1536 1536 1536 1537 1537 1539 1540 1541 1543 1543 1545 1546 1547 1549 1551 1553 1554
1532 1536 1539 1541 1543 1545 1548 1552 1555 1557 1557 1556 1556 1556 1556 1555 1554 1553 1551 1550 1549 1547 1545 1543 1541 1539 1538 1536 1535 1533 1532 1532 1531 1531 1532 1533 1533 1534 1536 1537 1539 1540 1542 1544 1546 1547 1549 1551 1553
1533 1536 1538 1540 1542 1545 1546 1553 1556 1558 1557 1557 1557 1556 1557 1556 1555 1553 1552 1550 1548 1546 1544 1541 1539 1537 1535 1533 1531 1530 1529 1528 1527 1527 1527 1528 1529 1530 1531 1533 1534 1536 1538 1540 1542 1545 1547 1549 1550
1530 1533 1542 1540 1540 1542 1547 1558 1557 1558 1557 1557 1557 1557 1556 1556 1555 1553 1552 1550 1547 1545 1543 1540 1538 1535 1533 1530 1528 1526 1525 1524 1523 1523 1523 1523 1524 1525 1526 1527 1529 1532 1534 1536 1538 1541 1543 1545 1548
1529 1537 1543 1544 1539 1540 1544 1555 1557 1558 1558 1557 1557 1556 1556 1556 1555 1553 1552 1550 1547 1544 1541 1539 1536 1533 1530 1527 1525 1523 1521 1520 1519 1518 1518 1518 1519 1520 1522 1522 1524 1526 1529 1531 1534 1536 1539 1542 1544
1537 1536 1536 1540 1540 1540 1546 1553 1556 1558 1558 1558 1557 1557 1556 1556 1555 1553 1552 1549 1546 1543 1540 1537 1534 1531 1527 1524 1522 1519 1517 1516 1514 1513 1513 1513 1514 1515 1517 1518 1520 1521 1524 1527 1529 1532 1535 1538 1541
1528 1530 1534 1538 1539 1541 1545 1550 1554 1557 1558 1559 1558 1558 1558 1557 1556 1554 1552 1549 1546 1543 1539 1536 1532 1529 1525 1522 1519 1516 1513 1511 1510 1509 1508 1508 1509 1510 1512 1513 1514 1517 1519 1522 1524 1527 1530 1533 1536
1528 1531 1532 1537 1539 1541 1544 1548 1552 1556 1558 1560 1559 1559 1559 1558 1556 1554 1551 1549 1545 1542 1538 1535 1531 1527 1524 1520 1517 1514 1511 1508 1506 1505 1504 1504 1504 1504 1506 1507 1508 1511 1513 1515 1519 1522 1524 1528 1531
1529 1533 1535 1538 1539 1540 1544 1549 1551 1554 1557 1558 1559 1559 1559 1558 1556 1554 1551 1548 1545 1541 1537 1533 1529 1526 1522 1518 1514 1511 1508 1505 1503 1501 1499 1499 1499 1499 1500 1502 1503 1505 1507 1510 1513 1517 1520 1523 1526
1535 1535 1536 1537 1543 1543 1542 1554 1552 1552 1554 1556 1558 1559 1559 1558 1556 1553 1551 1548 1544 1541 1537 1533 1529 1524 1520 1516 1512 1509 1506 1502 1500 1498 1496 1495 1494 1495 1495 1496 1498 1500 1501 1504 1508 1511 1514 1518 1521
1538 1536 1536 1536 1539 1541 1536 1546 1555 1549 1554 1556 1557 1558 1558 1557 1555 1553 1550 1547 1544 1540 1536 1532 1528 1523 1519 1515 1511 1507 1504 1500 1497 1495 1493 1491 1490 1491 1491 1492 1493 1495 1497 1499 1502 1505 1508 1511 1515
1536 1535 1533 1533 1537 1547 1537 1545 1558 1553 1555 1556 1557 1558 1558 1557 1555 1553 1550 1547 1543 1540 1536 1531 1527 1523 1518 1514 1510 1506 1502 1498 1495 1493 1490 1489 1488 1487 1487 1488 1489 1490 1492 1494 1497 1500 1503 1506 1509
1534 1538 1544 1544 1547 1545 1537 1543 1558 1554 1554 1556 1557 1558 1558 1556 1554 1552 1549 1546 1543 1539 1535 1531 1527 1522 1518 1513 1509 1505 1501 1497 1494 1491 1489 1487 1486 1485 1484 1485 1485 1486 1487 1489 1492 1494 1497 1501 1504
1535 1538 1550 1559 1549 1543 1539 1547 1555 1552 1555 1556 1556 1557 1557 1555 1554 1552 1549 1546 1542 1539 1535 1531 1527 1522 1518 1513 1509 1504 1500 1496 1493 1490 1488 1486 1484 1483 1482 1482 1482 1483 1484 1486 1487 1490 1493 1496 1499
1538 1535 1535 1545 1539 1541 1539 1546 1552 1551 1553 1554 1555 1555 1555 1555 1553 1551 1548 1545 1542 1539 1535 1531 1527 1522 1518 1513 1509 1505 1501 1497 1493 1490 1488 1486 1484 1482 1481 1481 1481 1481 1481 1482 1484 1485 1488 1491 1494
1539 1539 1539 1543 1552 1555 1543 1545 1553 1552 1552 1553 1554 1555 1555 1555 1553 1550 1548 1545 1542 1539 1535 1531 1527 1523 1518 1514 1510 1506 1502 1498 1494 1491 1488 1486 1484 1482 1480 1480 1479 1479 1479 1480 1481 1482 1485 1487 1490
1539 1538 1539 1540 1542 1556 1559 1559 1547 1550 1552 1553 1554 1555 1555 1554 1552 1550 1548 1545 1542 1539 1535 1532 1528 1523 1519 1515 1511 1507 1503 1499 1495 1492 1490 1487 1484 1482 1480 1479 1478 1477 1477 1478 1478 1480 1482 1484 1487
1540 1541 1542 1550 1547 1544 1552 1561 1547 1549 1551 1553 1554 1554 1554 1553 1552 1550 1548 1545 1542 1539 1536 1532 1528 1524 1520 1516 1512 1508 1505 1501 1497 1494 1491 1488 1486 1483 1481 1480 1478 1477 1477 1476 1477 1478 1480 1481 1484